TimeCDT,TemperatureF,Dew PointF,Humidity,Sea Level PressureIn,VisibilityMPH,Wind Direction,Wind SpeedMPH,Gust SpeedMPH,PrecipitationIn,Events,Conditions,WindDirDegrees,DateUTC
12:54 AM,46.0,43.0,89,30.16,10.0,West,9.2,-,N/A,,Partly Cloudy,270,2012-09-17 05:54:00
1:54 AM,45.0,42.1,90,30.16,10.0,WNW,11.5,-,N/A,,Clear,290,2012-09-17 06:54:00
2:54 AM,42.1,39.9,92,30.15,10.0,SW,4.6,-,N/A,,Clear,230,2012-09-17 07:54:00
3:54 AM,42.1,39.0,89,30.16,10.0,NW,5.8,-,N/A,,Mostly Cloudy,310,2012-09-17 08:54:00
4:54 AM,41.0,37.9,89,30.16,10.0,West,10.4,-,N/A,,Clear,280,2012-09-17 09:54:00
5:54 AM,39.9,37.0,89,30.16,10.0,WNW,9.2,-,N/A,,Clear,290,2012-09-17 10:54:00
6:54 AM,37.9,36.0,93,30.18,10.0,WNW,9.2,-,N/A,,Clear,300,2012-09-17 11:54:00
7:54 AM,41.0,37.9,89,30.19,10.0,WNW,9.2,-,N/A,,Overcast,290,2012-09-17 12:54:00
8:54 AM,41.0,37.9,89,30.20,10.0,NW,8.1,-,N/A,,Clear,320,2012-09-17 13:54:00
9:01 AM,42.8,37.4,81,30.16,10.0,NNW,10.4,-,N/A,,Partly Cloudy,330,2012-09-17 14:01:00
9:54 AM,45.0,39.0,80,30.21,10.0,NW,8.1,-,N/A,,Clear,310,2012-09-17 14:54:00
10:54 AM,48.0,39.0,71,30.21,10.0,NW,8.1,-,N/A,,Partly Cloudy,320,2012-09-17 15:54:00
11:54 AM,50.0,39.0,66,30.20,10.0,NNW,13.8,17.3,N/A,,Mostly Cloudy,330,2012-09-17 16:54:00
12:54 PM,51.1,37.0,59,30.19,10.0,NNW,11.5,-,N/A,,Mostly Cloudy,330,2012-09-17 17:54:00
1:01 PM,51.8,37.4,58,30.16,10.0,NNW,12.7,-,N/A,,Mostly Cloudy,330,2012-09-17 18:01:00
1:19 PM,53.6,35.6,51,30.16,10.0,NNW,9.2,-,N/A,,Mostly Cloudy,340,2012-09-17 18:19:00
1:54 PM,54.0,35.1,49,30.18,10.0,NW,12.7,-,N/A,,Mostly Cloudy,320,2012-09-17 18:54:00
2:01 PM,53.6,33.8,47,30.14,10.0,WNW,12.7,-,N/A,,Scattered Clouds,300,2012-09-17 19:01:00
2:54 PM,55.9,30.0,37,30.16,10.0,WNW,12.7,20.7,N/A,,Partly Cloudy,300,2012-09-17 19:54:00
3:54 PM,55.9,28.9,36,30.14,10.0,WNW,16.1,21.9,N/A,,Clear,300,2012-09-17 20:54:00
4:54 PM,57.0,28.9,34,30.14,10.0,WNW,11.5,17.3,N/A,,Clear,290,2012-09-17 21:54:00
5:54 PM,57.0,28.0,33,30.13,10.0,NW,11.5,-,N/A,,Clear,320,2012-09-17 22:54:00
6:54 PM,55.0,28.0,35,30.12,10.0,West,4.6,-,N/A,,Clear,280,2012-09-17 23:54:00
7:54 PM,52.0,28.0,40,30.12,10.0,Calm,Calm,-,N/A,,Clear,0,2012-09-18 00:54:00
8:54 PM,46.9,28.0,48,30.12,10.0,Calm,Calm,-,N/A,,Clear,0,2012-09-18 01:54:00
9:54 PM,44.1,30.9,60,30.11,10.0,SW,6.9,-,N/A,,Clear,220,2012-09-18 02:54:00
10:54 PM,42.1,30.0,62,30.09,10.0,SSW,5.8,-,N/A,,Clear,200,2012-09-18 03:54:00
11:54 PM,41.0,30.9,67,30.08,10.0,South,3.5,-,N/A,,Clear,170,2012-09-18 04:54:00